TimeCST,TemperatureF,Dew PointF,Humidity,Sea Level PressureIn,VisibilityMPH,Wind Direction,Wind SpeedMPH,Gust SpeedMPH,PrecipitationIn,Events,Conditions,WindDirDegrees,DateUTC
12:00 AM,55.4,53.6,94,29.98,10.0,NNE,3.5,-,0.00,Rain,Light Rain,30,2013-01-01 06:00:00
12:21 AM,55.4,53.6,94,29.98,4.0,Calm,Calm,-,0.03,Rain,Rain,0,2013-01-01 06:21:00
12:34 AM,55.4,53.6,94,29.98,2.0,North,5.8,-,0.09,Rain,Heavy Rain,350,2013-01-01 06:34:00
12:44 AM,55.4,53.6,94,29.99,1.8,NNW,5.8,-,0.17,Rain,Heavy Rain,330,2013-01-01 06:44:00
12:53 AM,55.9,53.1,90,29.99,3.0,North,3.5,-,0.18,Rain,Light Rain,350,2013-01-01 06:53:00
1:03 AM,55.4,53.6,94,29.99,4.0,NNW,3.5,-,0.01,Rain,Light Rain,340,2013-01-01 07:03:00
1:17 AM,55.4,53.6,94,29.97,5.0,North,6.9,-,0.01,Rain,Light Rain,350,2013-01-01 07:17:00
1:53 AM,55.9,53.1,90,30.00,10.0,NNW,8.1,-,0.01,Rain,Light Rain,340,2013-01-01 07:53:00
2:10 AM,55.4,51.8,88,30.00,10.0,North,6.9,-,0.00,Rain,Light Rain,350,2013-01-01 08:10:00
2:53 AM,55.0,51.1,86,29.99,10.0,North,8.1,-,0.00,,Overcast,350,2013-01-01 08:53:00
3:53 AM,54.0,50.0,86,30.00,6.0,North,9.2,-,0.01,Rain,Light Rain,10,2013-01-01 09:53:00
4:53 AM,53.1,48.0,83,29.98,10.0,NE,5.8,-,0.00,Rain,Light Rain,40,2013-01-01 10:53:00
5:44 AM,53.6,48.2,82,29.99,10.0,NNE,5.8,-,0.00,,Overcast,30,2013-01-01 11:44:00
5:53 AM,53.1,48.9,86,29.99,10.0,NNE,4.6,-,0.00,,Overcast,20,2013-01-01 11:53:00
6:02 AM,53.6,48.2,82,30.00,10.0,NNE,5.8,-,N/A,,Overcast,30,2013-01-01 12:02:00
6:53 AM,51.8,48.2,88,30.03,10.0,NNW,5.8,-,N/A,,Overcast,340,2013-01-01 12:53:00
7:53 AM,51.1,46.9,86,30.08,5.0,NNW,5.8,-,0.00,Rain,Light Rain,340,2013-01-01 13:53:00
8:53 AM,51.1,46.9,86,30.10,8.0,NW,5.8,-,0.01,,Overcast,320,2013-01-01 14:53:00
9:53 AM,50.0,46.0,86,30.12,5.0,NNW,8.1,-,0.00,Rain,Light Rain,330,2013-01-01 15:53:00
10:53 AM,48.9,45.0,86,30.14,4.0,NNW,8.1,-,0.00,,Overcast,330,2013-01-01 16:53:00
11:32 AM,50.0,44.6,82,30.13,8.0,North,9.2,-,N/A,,Overcast,360,2013-01-01 17:32:00
11:53 AM,50.0,45.0,83,30.10,7.0,North,6.9,-,N/A,,Overcast,350,2013-01-01 17:53:00
12:13 PM,50.0,44.6,82,30.08,7.0,Variable,5.8,-,N/A,,Overcast,0,2013-01-01 18:13:00
12:21 PM,51.8,44.6,76,30.08,8.0,North,6.9,-,N/A,,Overcast,360,2013-01-01 18:21:00
12:53 PM,51.1,45.0,80,30.08,8.0,NNW,4.6,-,N/A,,Overcast,340,2013-01-01 18:53:00
1:20 PM,51.8,44.6,76,30.09,9.0,NW,6.9,-,N/A,,Overcast,310,2013-01-01 19:20:00
1:53 PM,51.1,44.1,77,30.09,10.0,NNW,8.1,-,N/A,,Overcast,330,2013-01-01 19:53:00
2:40 PM,51.8,44.6,76,30.09,10.0,Variable,6.9,17.3,N/A,,Overcast,0,2013-01-01 20:40:00
2:53 PM,52.0,44.1,74,30.09,10.0,NNW,8.1,17.3,N/A,,Overcast,330,2013-01-01 20:53:00
3:53 PM,51.8,42.8,71,30.12,10.0,NNW,9.2,-,N/A,,Overcast,340,2013-01-01 21:53:00
5:53 PM,48.9,41.0,74,30.16,10.0,NNW,8.1,-,N/A,,Overcast,330,2013-01-01 23:53:00
6:53 PM,46.9,39.0,74,30.18,10.0,North,10.4,-,N/A,,Overcast,360,2013-01-02 00:53:00
7:53 PM,46.9,39.0,74,30.20,10.0,NNW,6.9,-,N/A,,Overcast,340,2013-01-02 01:53:00
8:53 PM,46.0,37.9,73,30.20,10.0,NNW,10.4,16.1,N/A,,Overcast,340,2013-01-02 02:53:00
9:53 PM,46.0,37.0,71,30.21,10.0,North,5.8,-,N/A,,Overcast,350,2013-01-02 03:53:00
10:53 PM,45.0,37.0,74,30.22,10.0,NNW,5.8,-,N/A,,Overcast,340,2013-01-02 04:53:00
11:53 PM,45.0,36.0,71,30.22,10.0,NNW,4.6,-,N/A,,Overcast,330,2013-01-02 05:53:00